Flag for U.S.A. Weather past 2 weeks in Virginia Beach, Virginia, U.S.A.

Now
64 °F

More clouds than sun.


Feels Like: 64 °F
Forecast: 66 / 72 °F
Wind: 10 mph from Northeast

Location: Virginia Beach - Oceana

Current Time: Sep 23, 2014 at 9:10:05 PM

Latest Report: Sep 23, 2014 at 7:56 PM


Visibility: 10 mi

Pressure: 30.29 "Hg

Humidity: 65%

Dew point: 52 °F

Location of Virginia BeachLocation

Historic Weather in Virginia Beach — Graph

°F

Virginia Beach temperature yesterday

Maximum temperature yesterday: 77 °F (at 1:56 PM)
Minimum temperature yesterday: 65 °F (at 10:56 PM)
Average temperature yesterday: 72 °F

Past Weeks' High & Low Weather Summary

 TemperatureHumidityPressure
High87 °F (Sep 11, 2:56 PM)100% (Sep 8, 6:56 PM)30.32 "Hg (Sep 8, 6:56 PM)
Low59 °F (Sep 18, 3:56 AM)42% (Sep 22, 12:56 PM)29.72 "Hg (Sep 21, 3:56 PM)
Average72 °F75%30.06 "Hg
* Reported Sep 8 6:56 PM — Sep 23 6:56 PM, Virginia Beach, Weather by CustomWeather, © 2014

Note: Actual official high and low records may vary slightly from our data, if they occured in-between our weather recording intervals... More about our weather records

Advertising

Virginia Beach weather history for previous 24 hours

 ConditionsComfort  
Time TempWeatherWind HumidityBarometerVisibility
6:56 PM
Sep 23
63 °FBroken clouds.10 mph65%30.28 "Hg10 mi
3:56 PM65 °FMore clouds than sun.13 mph66%30.29 "Hg10 mi
2:56 PM65 °FMore clouds than sun.16 mph68%30.29 "Hg10 mi
1:56 PM65 °FMore clouds than sun.12 mph66%30.30 "Hg10 mi
12:56 PM65 °FOvercast.15 mph66%30.32 "Hg10 mi
11:56 AM64 °FMore clouds than sun.15 mph65%30.31 "Hg10 mi
10:56 AM64 °FMore clouds than sun.14 mph68%30.30 "Hg10 mi
9:56 AM63 °FMore clouds than sun.17 mph70%30.28 "Hg10 mi
8:56 AM63 °FMore clouds than sun.12 mph70%30.28 "Hg10 mi
7:56 AM62 °FPartly sunny.14 mph70%30.25 "Hg10 mi
6:56 AM62 °FPassing clouds.13 mph65%30.24 "Hg10 mi
5:56 AM62 °FPassing clouds.14 mph60%30.22 "Hg10 mi
4:56 AM62 °FPassing clouds.15 mph58%30.22 "Hg10 mi
3:56 AM63 °FPassing clouds.14 mph58%30.20 "Hg10 mi
2:56 AM65 °FPassing clouds.16 mph59%30.18 "Hg10 mi
1:56 AM66 °FPassing clouds.17 mph59%30.18 "Hg10 mi
12:56 AM67 °FPassing clouds.15 mph61%30.17 "Hg10 mi
11:56 PM
Sep 22
66 °FPassing clouds.9 mph65%30.16 "Hg10 mi
10:56 PM65 °FPassing clouds.7 mph68%30.14 "Hg10 mi
9:56 PM66 °FPassing clouds.5 mph65%30.14 "Hg10 mi
Weather by CustomWeather, © 2014

See weather overviewHow to use our weather pages